Regional Weather Roundup
Issued by NWS State College, PA

Home | Current Version | Previous Version | Text Only | Print | Product List | Glossary On
Versions: 1 2 3 4 5 6 7 8 9 10 11 12 13 14 15 16 17 18 19 20 21 22 23 24 25 26 27 28 29 30 31 32 33 34 35 36 37 38 39 40 41 42 43 44 45 46 47 48 49 50
000
ASUS41 KCTP 300003
RWRCTP

REGIONAL WEATHER ROUNDUP
NATIONAL WEATHER SERVICE STATE COLLEGE PA
800 PM EDT SUN MAR 29 2015

Note: "fair" indicates few or no clouds below 12,000 feet with no
significant weather and/or obstructions to visibility.

* = STATION THAT DOES NOT REPORT PRECIPITATION /E.G. RAIN...SNOW...ETC/
    THUNDER OR FOG.

PAZ002>004-007>009-013>016-020>023-029>032-300100-
WESTERN PENNSYLVANIA

CITY           SKY/WX    TMP DP  RH WIND       PRES   REMARKS
ERIE           CLOUDY    43   9  24 S17G28    29.90F
MEADVILLE      CLOUDY    40   9  28 VRB7G21   29.91F
FRANKLIN*      CLOUDY    37  12  35 S16       29.95F
NEW CASTLE     FAIR      42   8  24 S9        29.96F
BEAVER COUNTY  NOT AVBL
BUTLER*        CLOUDY    39  10  30 S10       30.00F
PITTSBURGH INT CLOUDY    42   8  24 S12       29.99F
PITTSBURGH     CLOUDY    41   3  20 S9G22     30.00F
INDIANA*       CLEAR     39  10  30 S6        30.05F
LATROBE        MOCLDY    41   9  26 S7        30.05F
WASHINGTON CO* CLOUDY    43   9  24 S8        30.02F
$$

PAZ004>006-010>012-017>019-024>028-033>037-041-042-045-046-049>053-300100-
CENTRAL PENNSYLVANIA

CITY           SKY/WX    TMP DP  RH WIND       PRES   REMARKS
BRADFORD       CLOUDY    35   9  33 S9        29.95F
DUBOIS         MOCLDY    38   6  26 S7        29.98F
CLEARFIELD     MOCLDY    39   7  26 SW6       30.02F
JOHNSTOWN      MOCLDY    37   7  28 SW7       30.01F
ALTOONA        MOCLDY    40   8  26 S12       30.05F
STATE COLLEGE  CLEAR     39   5  24 SW7       30.04F
WILLIAMSPORT   PTCLDY    42   5  21 SW12G18   30.07F
SELINSGROVE    PTCLDY    40  13  33 S7        30.10F
FT INDIANTOWN  CLEAR     39   7  26 S6        30.12F
CAPITAL CITY   CLEAR     41   7  24 S8        30.13F
HARRISBURG     PTCLDY    41  11  29 S8        30.13F
YORK           CLEAR     37   9  31 S5        30.14F
$$

PAZ038>040-043-044-047-048-054-055-060>062-067>071-300100-
EASTERN PENNSYLVANIA

CITY           SKY/WX    TMP DP  RH WIND       PRES   REMARKS
SCRANTON       CLEAR     37   5  26 S5        30.06F
MOUNT POCONO   CLEAR     31   7  36 W3        30.05F
ALLENTOWN      CLEAR     36  11  35 SW9       30.13F
QUAKERTOWN*    CLEAR     37   9  30 SW5       30.15S
READING        FAIR      39   8  27 S5        30.14S
LANCASTER      CLEAR     38   9  30 SW6       30.14F
COATESVILLE    CLEAR     36   9  32 CALM      30.16S
POTTSTOWN      CLEAR     37  10  32 SW3       30.17F
BLUE BELL      CLEAR     39  16  38 SW3       30.16F
DOYLESTOWN     CLEAR     36   8  31 SW5       30.14F
WILLOW GROVE   NOT AVBL
NORTH PHILA    CLEAR     41   6  23 SW7       30.19F
PHILADELPHIA   PTCLDY    42  10  27 SW6       30.19F
$$



USA.gov is the U.S. government's official web portal to all federal, state and local government web resources and services.